TimeEDT,TemperatureF,Dew PointF,Humidity,Sea Level PressureIn,VisibilityMPH,Wind Direction,Wind SpeedMPH,Gust SpeedMPH,PrecipitationIn,Events,Conditions,WindDirDegrees,DateUTC
12:15 AM,75.2,66.2,73,30.00,10.0,Calm,Calm,-,N/A,,Clear,0,2013-09-30 04:15:00
12:35 AM,73.4,68.0,83,29.99,10.0,Calm,Calm,-,N/A,,Clear,0,2013-09-30 04:35:00
12:55 AM,71.6,71.6,100,29.99,10.0,Calm,Calm,-,N/A,,Clear,0,2013-09-30 04:55:00
1:15 AM,71.6,-9999,N/A,29.98,10.0,East,3.5,-,N/A,,Clear,80,2013-09-30 05:15:00
1:35 AM,71.6,-9999,N/A,29.98,10.0,Calm,Calm,-,N/A,,Clear,0,2013-09-30 05:35:00
1:55 AM,71.6,-9999,N/A,29.97,10.0,Calm,Calm,-,N/A,,Scattered Clouds,0,2013-09-30 05:55:00
2:15 AM,71.6,-9999,N/A,29.97,10.0,Calm,Calm,-,N/A,,Scattered Clouds,0,2013-09-30 06:15:00
2:35 AM,73.4,-9999,N/A,29.97,10.0,Calm,Calm,-,N/A,,Overcast,0,2013-09-30 06:35:00
2:55 AM,73.4,-9999,N/A,29.98,10.0,Calm,Calm,-,N/A,,Scattered Clouds,0,2013-09-30 06:55:00
3:15 AM,71.6,-9999,N/A,29.97,10.0,Calm,Calm,-,N/A,,Clear,0,2013-09-30 07:15:00
3:35 AM,71.6,-9999,N/A,29.97,10.0,Calm,Calm,-,N/A,,Clear,0,2013-09-30 07:35:00
3:55 AM,71.6,-9999,N/A,29.96,10.0,Calm,Calm,-,N/A,,Mostly Cloudy,0,2013-09-30 07:55:00
4:15 AM,71.6,-9999,N/A,29.96,10.0,Calm,Calm,-,N/A,,Overcast,0,2013-09-30 08:15:00
4:35 AM,71.6,-9999,N/A,29.96,10.0,North,3.5,-,N/A,,Mostly Cloudy,350,2013-09-30 08:35:00
4:55 AM,71.6,-9999,N/A,29.96,10.0,Calm,Calm,-,N/A,,Scattered Clouds,0,2013-09-30 08:55:00
5:15 AM,69.8,-9999,N/A,29.97,10.0,Calm,Calm,-,N/A,,Scattered Clouds,0,2013-09-30 09:15:00
5:35 AM,69.8,-9999,N/A,29.97,10.0,Calm,Calm,-,N/A,,Scattered Clouds,0,2013-09-30 09:35:00
5:55 AM,69.8,-9999,N/A,29.96,10.0,Calm,Calm,-,N/A,,Mostly Cloudy,0,2013-09-30 09:55:00
6:15 AM,71.6,-9999,N/A,29.97,10.0,Calm,Calm,-,N/A,,Scattered Clouds,0,2013-09-30 10:15:00
6:35 AM,71.6,-9999,N/A,29.98,10.0,Calm,Calm,-,N/A,,Mostly Cloudy,0,2013-09-30 10:35:00
6:55 AM,71.6,-9999,N/A,29.98,10.0,Calm,Calm,-,N/A,,Overcast,0,2013-09-30 10:55:00
7:15 AM,71.6,-9999,N/A,29.99,10.0,NNE,3.5,-,N/A,,Overcast,20,2013-09-30 11:15:00
7:35 AM,71.6,-9999,N/A,29.99,10.0,NE,3.5,-,N/A,,Overcast,40,2013-09-30 11:35:00
7:55 AM,71.6,-9999,N/A,29.99,10.0,ENE,4.6,-,N/A,,Overcast,70,2013-09-30 11:55:00
8:15 AM,73.4,-9999,N/A,30.00,10.0,ENE,5.8,-,N/A,,Overcast,60,2013-09-30 12:15:00
8:35 AM,73.4,-9999,N/A,30.01,10.0,ENE,3.5,-,N/A,,Overcast,60,2013-09-30 12:35:00
8:55 AM,75.2,-9999,N/A,30.01,10.0,NE,3.5,-,N/A,,Overcast,50,2013-09-30 12:55:00
9:15 AM,75.2,-9999,N/A,30.02,10.0,Calm,Calm,-,N/A,,Overcast,0,2013-09-30 13:15:00
9:35 AM,77.0,-9999,N/A,30.02,10.0,East,3.5,-,N/A,,Overcast,80,2013-09-30 13:35:00
9:55 AM,78.8,-9999,N/A,30.02,10.0,Calm,Calm,-,N/A,,Mostly Cloudy,0,2013-09-30 13:55:00
10:15 AM,80.6,71.6,74,30.02,10.0,SE,4.6,-,N/A,,Scattered Clouds,130,2013-09-30 14:15:00
10:35 AM,82.4,69.8,66,30.02,10.0,SE,5.8,-,N/A,,Scattered Clouds,140,2013-09-30 14:35:00
10:55 AM,82.4,68.0,62,30.02,10.0,Calm,Calm,-,N/A,,Clear,0,2013-09-30 14:55:00
11:15 AM,84.2,68.0,58,30.02,10.0,SE,5.8,-,N/A,,Scattered Clouds,130,2013-09-30 15:15:00
11:35 AM,84.2,66.2,55,30.01,10.0,Calm,Calm,-,N/A,,Clear,0,2013-09-30 15:35:00
11:55 AM,86.0,66.2,51,30.01,10.0,SE,4.6,-,N/A,,Clear,140,2013-09-30 15:55:00
12:15 PM,86.0,64.4,48,30.00,10.0,Calm,Calm,-,N/A,,Clear,0,2013-09-30 16:15:00
12:35 PM,86.0,64.4,48,30.00,10.0,Calm,Calm,-,N/A,,Clear,0,2013-09-30 16:35:00
12:55 PM,86.0,62.6,45,30.00,10.0,Calm,Calm,-,N/A,,Clear,0,2013-09-30 16:55:00
1:15 PM,87.8,60.8,40,29.99,10.0,East,4.6,-,N/A,,Scattered Clouds,90,2013-09-30 17:15:00
1:35 PM,87.8,60.8,40,29.99,10.0,ESE,3.5,-,N/A,,Scattered Clouds,110,2013-09-30 17:35:00
1:55 PM,87.8,60.8,40,29.98,10.0,ENE,6.9,-,N/A,,Scattered Clouds,60,2013-09-30 17:55:00
2:15 PM,87.8,60.8,40,29.97,10.0,Calm,Calm,-,N/A,,Clear,0,2013-09-30 18:15:00
2:35 PM,89.6,60.8,38,29.97,10.0,Calm,Calm,-,N/A,,Clear,0,2013-09-30 18:35:00
2:55 PM,89.6,59.0,36,29.96,10.0,ENE,3.5,-,N/A,,Mostly Cloudy,60,2013-09-30 18:55:00
3:15 PM,89.6,59.0,36,29.96,10.0,North,3.5,-,N/A,,Overcast,350,2013-09-30 19:15:00
3:35 PM,89.6,59.0,36,29.95,10.0,ENE,3.5,-,N/A,,Scattered Clouds,60,2013-09-30 19:35:00
3:55 PM,91.4,57.2,31,29.95,10.0,Calm,Calm,-,N/A,,Scattered Clouds,0,2013-09-30 19:55:00
4:15 PM,91.4,57.2,31,29.95,10.0,Calm,Calm,-,N/A,,Scattered Clouds,0,2013-09-30 20:15:00
4:35 PM,91.4,57.2,31,29.95,10.0,SE,5.8,-,N/A,,Mostly Cloudy,140,2013-09-30 20:35:00
4:55 PM,87.8,59.0,38,29.95,10.0,NE,4.6,-,N/A,,Overcast,40,2013-09-30 20:55:00
5:15 PM,87.8,60.8,40,29.95,10.0,ENE,3.5,-,N/A,,Overcast,60,2013-09-30 21:15:00
5:35 PM,87.8,60.8,40,29.95,10.0,Calm,Calm,-,N/A,,Overcast,0,2013-09-30 21:35:00
5:55 PM,86.0,62.6,45,29.95,10.0,Calm,Calm,-,N/A,,Overcast,0,2013-09-30 21:55:00
6:15 PM,86.0,62.6,45,29.95,10.0,Calm,Calm,-,N/A,,Mostly Cloudy,0,2013-09-30 22:15:00
6:35 PM,84.2,64.4,51,29.96,10.0,Calm,Calm,-,N/A,,Mostly Cloudy,0,2013-09-30 22:35:00
6:55 PM,84.2,66.2,55,29.96,10.0,NE,4.6,-,N/A,,Overcast,40,2013-09-30 22:55:00
7:15 PM,84.2,66.2,55,29.97,10.0,NNE,3.5,-,N/A,,Overcast,30,2013-09-30 23:15:00
7:35 PM,82.4,66.2,58,29.97,10.0,Calm,Calm,-,N/A,,Overcast,0,2013-09-30 23:35:00
7:55 PM,82.4,66.2,58,29.98,10.0,Calm,Calm,-,N/A,,Overcast,0,2013-09-30 23:55:00
8:15 PM,82.4,66.2,58,29.99,10.0,NNE,6.9,-,N/A,,Mostly Cloudy,30,2013-10-01 00:15:00
8:35 PM,80.6,68.0,65,30.00,10.0,NE,9.2,-,N/A,,Mostly Cloudy,50,2013-10-01 00:35:00
8:55 PM,80.6,68.0,65,30.01,10.0,NE,9.2,-,N/A,,Overcast,50,2013-10-01 00:55:00
9:15 PM,80.6,68.0,65,30.01,10.0,ENE,8.1,-,N/A,,Overcast,70,2013-10-01 01:15:00
9:35 PM,80.6,68.0,65,30.02,10.0,ENE,8.1,-,N/A,,Scattered Clouds,70,2013-10-01 01:35:00
9:55 PM,78.8,68.0,69,30.03,10.0,ENE,9.2,-,N/A,,Scattered Clouds,70,2013-10-01 01:55:00
10:15 PM,78.8,68.0,69,30.04,10.0,East,6.9,-,N/A,,Clear,80,2013-10-01 02:15:00
10:35 PM,78.8,68.0,69,30.04,10.0,ENE,6.9,-,N/A,,Clear,70,2013-10-01 02:35:00
10:55 PM,78.8,69.8,74,30.04,10.0,East,6.9,-,N/A,,Clear,80,2013-10-01 02:55:00
11:15 PM,78.8,69.8,74,30.04,10.0,East,6.9,-,N/A,,Clear,90,2013-10-01 03:15:00
11:35 PM,77.0,69.8,78,30.04,10.0,East,5.8,-,N/A,,Clear,90,2013-10-01 03:35:00
11:55 PM,77.0,69.8,78,30.04,10.0,East,4.6,-,N/A,,Clear,90,2013-10-01 03:55:00